Вернуться в каталог

AAUSAT3

АктивенНаукаSSO
NORAD 39087·PAYLOAD·🇩🇰 Denmark

Запущен Feb 25, 2013 с Satish Dhawan Space Centre

Loading…

Ближайшие Пролёты (ближайшие 24 часа)

TLE

СвежийSource: Space-Track

Эпоха: Sep 14, 2026, 11:15 UTC

1 39087U 13009B   26257.46928753  .00000431  00000-0  15037-3 0  9993
2 39087  98.3733  79.2585 0010436 308.0293  51.9953 14.40029684710027

Отслеживайте AAUSAT3 в реальном времени с AllMySat

Download on the App Store